QPF
0.00 0.00 0.00 0.00 0.00 0.01 0.00 0.00 0.02 0.00 0.00 0.00 0.00 0.00 0.00 0.00 0.00 0.00 0.00 0.00 0.00 0.00 0.00 0.00 0.00 0.00 0.00 0.00 0.00 0.00 0.00 0.01 0.01 0.00 0.00 0.00 0.00 0.00 0.00 0.00 0.00 0.00 0.00 0.00 0.00 0.00 0.00 0.00 0.00
0.00 0.00 0.00 0.00 0.00 0.00 0.00 0.00 0.00 0.00 0.00 0.00 0.00 0.00 0.00 0.00 0.00 0.00 0.00 0.00 0.00 0.00 0.00 0.00 0.00 0.00 0.00 0.00 0.00 0.00 0.01 0.01 0.00 0.00 0.00 0.00 0.00 0.00 0.00 0.00 0.00 0.00 0.00 0.00 0.00 0.00 0.00 0.00 0.00
0.00 0.00 0.00 0.00 0.00 0.00 0.00 0.00 0.00 0.00 0.00 0.00 0.00 0.00 0.00 0.00 0.00 0.00 0.00 0.00 0.00 0.00 0.00 0.00 0.00 0.00 0.00 0.00 0.00 0.01 0.00 0.00 0.00 0.00 0.00 0.00 0.00 0.00 0.00 0.00 0.00 0.00 0.00 0.00 0.00 0.00 0.00 0.00 0.00
0.00 0.00 0.00 0.00 0.00 0.00 0.00 0.00 0.00 0.00 0.00 0.01 0.04 0.01 0.00 0.00 0.00 0.00 0.00 0.00 0.00 0.00 0.00 0.00 0.00 0.00 0.00 0.00 0.00 0.00 0.00 0.00 0.00 0.00 0.00 0.00 0.00 0.00 0.00 0.00 0.00 0.00 0.00 0.00 0.00 0.00 0.00 0.00 0.00
0.00 0.00 0.00 0.00 0.00 0.00 0.00 0.00 0.00 0.00 0.01 0.03 0.10 0.03 0.00 0.00 0.00 0.00 0.00 0.00 0.00 0.00 0.00 0.00 0.00 0.00 0.00 0.00 0.01 0.00 0.00 0.00 0.00 0.00 0.00 0.00 0.00 0.00 0.00 0.00 0.00 0.00 0.00 0.00 0.00 0.00 0.00 0.00 0.00
0.00 0.00 0.00 0.00 0.00 0.00 0.00 0.00 0.00 0.00 0.00 0.02 0.12 0.07 0.01 0.00 0.00 0.00 0.00 0.00 0.00 0.00 0.00 0.00 0.00 0.00 0.00 0.01 0.00 0.00 0.00 0.00 0.00 0.00 0.00 0.00 0.00 0.00 0.00 0.00 0.00 0.00 0.00 0.00 0.00 0.00 0.00 0.00 0.00
0.00 0.00 0.00 0.00 0.00 0.00 0.00 0.00 0.00 0.00 0.01 0.03 0.03 0.02 0.01 0.00 0.00 0.00 0.00 0.00 0.00 0.00 0.00 0.00 0.00 0.00 0.01 0.00 0.00 0.00 0.00 0.00 0.00 0.00 0.00 0.00 0.00 0.00 0.00 0.00 0.00 0.00 0.00 0.00 0.00 0.00 0.00 0.00 0.00
0.00 0.00 0.00 0.00 0.00 0.00 0.00 0.00 0.00 0.00 0.00 0.00 0.02 0.02 0.00 0.00 0.00 0.00 0.00 0.00 0.00 0.00 0.00 0.00 0.00 0.00 0.00 0.00 0.00 0.00 0.00 0.00 0.00 0.00 0.00 0.00 0.00 0.00 0.00 0.00 0.00 0.00 0.00 0.00 0.00 0.00 0.00 0.00 0.00
0.00 0.00 0.00 0.00 0.00 0.00 0.00 0.00 0.00 0.00 0.00 0.01 0.06 0.01 0.03 0.00 0.00 0.00 0.00 0.00 0.00 0.00 0.00 0.00 0.00 0.00 0.00 0.00 0.00 0.00 0.00 0.00 0.00 0.00 0.00 0.00 0.00 0.00 0.00 0.00 0.00 0.00 0.00 0.00 0.00 0.00 0.00 0.00 0.00
0.00 0.00 0.00 0.00 0.00 0.00 0.00 0.00 0.00 0.00 0.00 0.01 0.10 0.16 0.11 0.00 0.00 0.00 0.00 0.00 0.00 0.00 0.00 0.00 0.00 0.00 0.00 0.00 0.00 0.00 0.00 0.00 0.00 0.00 0.00 0.00 0.00 0.00 0.00 0.00 0.00 0.00 0.00 0.00 0.00 0.00 0.00 0.00 0.00
0.00 0.00 0.00 0.00 0.00 0.00 0.00 0.00 0.00 0.00 0.00 0.00 0.01 0.10 0.05 0.00 0.00 0.00 0.00 0.00 0.00 0.00 0.00 0.00 0.00 0.00 0.00 0.00 0.00 0.00 0.00 0.00 0.00 0.00 0.00 0.00 0.00 0.00 0.00 0.00 0.00 0.00 0.00 0.00 0.00 0.00 0.00 0.00 0.00
0.00 0.00 0.00 0.00 0.00 0.00 0.00 0.00 0.00 0.00 0.00 0.00 0.01 0.01 0.01 0.00 0.00 0.00 0.00 0.00 0.00 0.00 0.00 0.00 0.00 0.00 0.00 0.00 0.00 0.00 0.00 0.00 0.00 0.00 0.00 0.00 0.00 0.00 0.00 0.00 0.00 0.00 0.00 0.00 0.00 0.00 0.00 0.00 0.00
0.00 0.00 0.00 0.00 0.00 0.00 0.00 0.00 0.00 0.00 0.00 0.00 0.00 0.00 0.00 0.01 0.01 0.00 0.00 0.00 0.00 0.00 0.00 0.00 0.00 0.00 0.00 0.00 0.00 0.00 0.00 0.00 0.00 0.00 0.00 0.00 0.00 0.00 0.00 0.00 0.00 0.00 0.00 0.00 0.00 0.00 0.00 0.00 0.00
0.00 0.00 0.00 0.00 0.00 0.00 0.00 0.00 0.00 0.00 0.00 0.00 0.00 0.06 0.18 0.17 0.07 0.01 0.00 0.00 0.00 0.00 0.00 0.00 0.00 0.00 0.00 0.00 0.00 0.00 0.00 0.00 0.00 0.00 0.00 0.00 0.00 0.00 0.00 0.00 0.00 0.00 0.00 0.00 0.00 0.00 0.00 0.00 0.00
0.00 0.00 0.00 0.00 0.00 0.00 0.00 0.00 0.00 0.00 0.00 0.00 0.01 0.08 0.16 0.05 0.06 0.08 0.01 0.00 0.00 0.00 0.00 0.00 0.00 0.00 0.00 0.00 0.00 0.00 0.00 0.00 0.00 0.00 0.00 0.00 0.00 0.00 0.00 0.00 0.00 0.00 0.00 0.00 0.00 0.00 0.00 0.00 0.00
0.00 0.00 0.00 0.00 0.00 0.00 0.00 0.00 0.00 0.00 0.00 0.00 0.00 0.00 0.03 0.12 0.15 0.11 0.02 0.00 0.00 0.00 0.00 0.00 0.00 0.00 0.00 0.00 0.00 0.00 0.00 0.00 0.00 0.00 0.00 0.00 0.00 0.00 0.00 0.00 0.00 0.00 0.00 0.00 0.00 0.00 0.00 0.00 0.00
0.00 0.00 0.00 0.00 0.00 0.00 0.00 0.00 0.00 0.00 0.00 0.00 0.00 0.00 0.01 0.11 0.11 0.13 0.04 0.00 0.00 0.00 0.00 0.00 0.00 0.00 0.00 0.00 0.00 0.00 0.00 0.00 0.00 0.00 0.00 0.00 0.00 0.00 0.00 0.00 0.00 0.00 0.00 0.00 0.00 0.00 0.00 0.00 0.00
0.00 0.00 0.00 0.00 0.00 0.00 0.00 0.00 0.00 0.00 0.00 0.00 0.00 0.01 0.01 0.03 0.07 0.12 0.06 0.02 0.02 0.01 0.00 0.00 0.00 0.00 0.00 0.00 0.00 0.00 0.00 0.01 0.01 0.00 0.00 0.00 0.00 0.00 0.00 0.00 0.00 0.00 0.00 0.00 0.00 0.00 0.00 0.00 0.00
0.00 0.00 0.00 0.00 0.00 0.00 0.00 0.01 0.01 0.00 0.00 0.00 0.00 0.00 0.01 0.00 0.01 0.07 0.07 0.03 0.05 0.00 0.01 0.01 0.00 0.00 0.00 0.00 0.00 0.01 0.05 0.08 0.06 0.01 0.00 0.00 0.00 0.00 0.00 0.00 0.00 0.00 0.00 0.00 0.00 0.00 0.00 0.00 0.00
0.00 0.00 0.00 0.00 0.00 0.00 0.00 0.00 0.00 0.00 0.00 0.00 0.01 0.00 0.01 0.00 0.00 0.01 0.04 0.02 0.01 0.02 0.03 0.02 0.00 0.00 0.00 0.00 0.00 0.01 0.12 0.11 0.03 0.02 0.00 0.00 0.00 0.00 0.00 0.00 0.00 0.00 0.00 0.00 0.00 0.00 0.00 0.00 0.00
0.00 0.00 0.00 0.00 0.00 0.00 0.00 0.00 0.00 0.00 0.00 0.04 0.13 0.08 0.06 0.04 0.01 0.01 0.02 0.01 0.01 0.04 0.23 0.06 0.06 0.07 0.02 0.00 0.04 0.06 0.09 0.04 0.01 0.00 0.00 0.00 0.00 0.00 0.00 0.00 0.00 0.00 0.00 0.00 0.00 0.00 0.00 0.00 0.00
0.00 0.00 0.00 0.00 0.00 0.00 0.00 0.00 0.00 0.00 0.00 0.02 0.09 0.09 0.02 0.06 0.02 0.00 0.00 0.00 0.02 0.17 0.35 0.34 0.27 0.22 0.07 0.04 0.12 0.04 0.03 0.00 0.00 0.00 0.00 0.00 0.00 0.00 0.00 0.00 0.00 0.00 0.00 0.00 0.00 0.00 0.00 0.00 0.00
0.00 0.00 0.00 0.00 0.00 0.00 0.00 0.00 0.00 0.00 0.00 0.02 0.03 0.02 0.00 0.01 0.03 0.00 0.00 0.00 0.00 0.00 0.03 0.04 0.05 0.04 0.02 0.00 0.01 0.01 0.00 0.00 0.00 0.00 0.00 0.00 0.00 0.00 0.00 0.00 0.00 0.00 0.00 0.00 0.00 0.00 0.00 0.00 0.00
0.00 0.00 0.00 0.00 0.00 0.00 0.00 0.00 0.00 0.00 0.00 0.00 0.00 0.00 0.00 0.00 0.00 0.00 0.00 0.00 0.00 0.00 0.00 0.00 0.00 0.00 0.00 0.00 0.00 0.00 0.00 0.00 0.00 0.00 0.00 0.00 0.00 0.00 0.00 0.00 0.00 0.00 0.00 0.00 0.00 0.00 0.00 0.00 0.00
0.00 0.00 0.00 0.00 0.00 0.00 0.00 0.00 0.00 0.00 0.00 0.00 0.00 0.00 0.00 0.00 0.00 0.00 0.00 0.00 0.00 0.00 0.00 0.00 0.00 0.00 0.00 0.00 0.00 0.00 0.00 0.00 0.00 0.00 0.00 0.00 0.00 0.00 0.00 0.00 0.00 0.00 0.00 0.00 0.00 0.00 0.00 0.00 0.00
0.00 0.00 0.00 0.00 0.00 0.00 0.00 0.01 0.00 0.00 0.00 0.00 0.00 0.00 0.00 0.00 0.00 0.00 0.00 0.00 0.00 0.00 0.00 0.00 0.00 0.00 0.00 0.00 0.00 0.00 0.00 0.00 0.00 0.00 0.00 0.00 0.00 0.00 0.00 0.00 0.00 0.00 0.00 0.00 0.00 0.00 0.00 0.00 0.00
0.00 0.00 0.00 0.00 0.00 0.00 0.00 0.00 0.00 0.00 0.00 0.00 0.00 0.00 0.00 0.00 0.00 0.00 0.00 0.00 0.00 0.00 0.00 0.00 0.00 0.00 0.00 0.00 0.00 0.00 0.00 0.00 0.00 0.00 0.00 0.00 0.00 0.00 0.00 0.00 0.00 0.00 0.00 0.00 0.00 0.00 0.00 0.00 0.00
0.00 0.00 0.00 0.00 0.00 0.00 0.01 0.00 0.00 0.00 0.00 0.00 0.00 0.00 0.00 0.00 0.00 0.00 0.00 0.00 0.00 0.00 0.00 0.00 0.00 0.00 0.00 0.00 0.00 0.00 0.00 0.00 0.00 0.00 0.00 0.00 0.00 0.00 0.00 0.00 0.00 0.00 0.00 0.00 0.00 0.00 0.00 0.00 0.00
0.00 0.00 0.00 0.00 0.00 0.00 0.00 0.00 0.00 0.00 0.00 0.00 0.00 0.00 0.00 0.00 0.00 0.00 0.00 0.00 0.00 0.00 0.00 0.00 0.00 0.00 0.00 0.00 0.00 0.00 0.00 0.00 0.00 0.00 0.00 0.00 0.00 0.00 0.00 0.00 0.00 0.00 0.00 0.00 0.00 0.00 0.00 0.00 0.00
0.00 0.00 0.00 0.00 0.00 0.00 0.00 0.00 0.00 0.00 0.00 0.00 0.00 0.00 0.00 0.00 0.00 0.00 0.00 0.00 0.00 0.00 0.00 0.00 0.00 0.00 0.00 0.00 0.00 0.00 0.00 0.00 0.00 0.00 0.00 0.00 0.00 0.00 0.00 0.00 0.00 0.00 0.00 0.00 0.00 0.00 0.00 0.00 0.00
MSLP
1009.86 1009.86 1010.46 1010.27 1011.25 1011.68 1010.53 1008.78 1007.72 1005.12 1004.95 1004.42 1004.83 1005.71 1006.94 1007.42 1008.06 1010.29 1010.38 1011.25 1012.27 1013.22 1013.92 1014.12 1014.50 1014.91 1015.24 1015.60 1015.59 1015.69 1015.99 1016.22 1016.31 1016.62 1016.72 1016.85 1016.90 1016.93 1016.90 1017.00 1016.89 1016.83 1016.90 1016.89 1017.01 1016.90 1016.74 1016.67 1016.51
1009.34 1009.51 1010.14 1010.03 1010.32 1010.51 1008.59 1007.63 1006.20 1005.08 1004.94 1004.99 1005.81 1006.43 1007.30 1008.46 1008.70 1010.44 1011.26 1012.07 1012.39 1013.13 1013.98 1014.25 1014.70 1015.13 1015.41 1015.78 1015.88 1015.96 1016.17 1016.47 1016.75 1016.88 1017.02 1017.06 1017.08 1017.10 1017.10 1017.08 1017.07 1017.18 1017.15 1017.07 1017.08 1017.07 1016.88 1016.75 1016.55
1009.31 1009.34 1009.81 1009.40 1008.98 1008.46 1006.98 1005.64 1005.07 1004.89 1005.01 1005.62 1006.73 1006.71 1007.35 1008.56 1009.46 1009.96 1011.22 1012.17 1012.71 1013.57 1014.13 1014.53 1014.95 1015.21 1015.60 1015.93 1016.10 1016.22 1016.49 1016.83 1017.10 1017.18 1017.24 1017.29 1017.34 1017.32 1017.41 1017.44 1017.36 1017.36 1017.40 1017.38 1017.35 1017.11 1016.98 1016.83 1016.62
1009.00 1009.10 1009.01 1008.33 1008.15 1006.51 1005.58 1004.40 1004.31 1005.23 1006.83 1008.72 1010.52 1009.04 1008.61 1008.20 1009.03 1010.04 1011.23 1011.92 1012.71 1013.71 1014.30 1014.57 1015.15 1015.56 1015.81 1016.09 1016.19 1016.46 1016.83 1017.05 1017.26 1017.28 1017.34 1017.42 1017.49 1017.53 1017.67 1017.68 1017.61 1017.56 1017.56 1017.53 1017.49 1017.22 1017.11 1016.90 1016.75
1008.86 1008.85 1008.67 1007.75 1006.30 1005.00 1004.15 1003.70 1004.90 1006.68 1009.63 1009.72 1012.65 1011.03 1010.16 1008.88 1009.38 1010.43 1011.39 1012.20 1012.80 1013.60 1014.25 1014.85 1015.21 1015.48 1015.76 1015.99 1016.30 1016.70 1016.96 1017.13 1017.28 1017.34 1017.47 1017.51 1017.69 1017.77 1017.73 1017.83 1017.75 1017.75 1017.75 1017.66 1017.49 1017.30 1017.22 1017.00 1016.87
1009.05 1008.55 1008.62 1007.63 1005.74 1003.89 1003.52 1004.33 1005.17 1006.73 1009.38 1010.69 1011.24 1011.16 1010.69 1009.35 1009.62 1010.57 1010.81 1011.80 1012.62 1013.47 1014.11 1014.65 1015.36 1015.61 1015.83 1016.13 1016.55 1016.81 1017.03 1017.28 1017.40 1017.51 1017.59 1017.62 1017.78 1017.85 1017.89 1017.97 1017.95 1017.89 1017.86 1017.76 1017.52 1017.38 1017.19 1017.14 1016.90
1008.87 1009.10 1008.26 1007.05 1005.58 1003.89 1003.09 1003.40 1005.29 1006.58 1008.29 1010.03 1010.61 1011.53 1011.13 1010.07 1009.32 1009.95 1011.20 1011.96 1012.79 1013.34 1013.96 1014.64 1015.27 1015.69 1015.88 1016.29 1016.73 1016.94 1017.19 1017.23 1017.40 1017.47 1017.51 1017.77 1017.91 1017.96 1018.08 1018.16 1018.15 1017.99 1017.96 1017.94 1017.67 1017.47 1017.24 1016.98 1016.86
1007.65 1008.41 1007.68 1006.30 1005.15 1003.41 1002.62 1003.03 1004.65 1006.10 1008.91 1010.30 1011.04 1010.76 1010.37 1009.75 1009.13 1009.86 1011.37 1012.07 1012.80 1013.46 1013.79 1014.33 1015.09 1015.67 1016.15 1016.36 1016.58 1016.87 1017.10 1017.17 1017.19 1017.31 1017.44 1017.73 1017.95 1018.00 1018.03 1018.23 1018.21 1018.12 1018.05 1018.03 1018.05 1017.81 1017.37 1016.94 1016.74
1006.91 1007.95 1007.54 1006.28 1004.30 1003.40 1002.46 1003.03 1004.01 1006.45 1009.51 1010.93 1012.09 1012.37 1012.02 1009.96 1009.24 1009.94 1011.54 1012.30 1012.83 1013.40 1013.77 1014.02 1014.85 1015.31 1015.80 1016.10 1016.34 1016.68 1016.80 1016.74 1016.73 1016.93 1017.17 1017.41 1017.75 1017.81 1017.87 1017.97 1018.08 1018.06 1018.07 1018.05 1018.15 1018.02 1017.74 1017.30 1016.90
1007.07 1007.51 1006.92 1005.90 1004.48 1003.67 1002.98 1002.85 1003.75 1006.81 1009.23 1010.77 1009.87 1010.32 1011.60 1010.15 1009.63 1009.93 1010.65 1011.82 1012.32 1012.91 1013.51 1013.70 1014.18 1014.58 1015.14 1015.27 1015.88 1016.31 1016.49 1016.58 1016.67 1016.85 1017.11 1017.33 1017.50 1017.68 1017.85 1018.02 1018.08 1018.04 1017.99 1018.05 1018.00 1017.90 1017.76 1017.53 1017.64
1006.50 1006.73 1005.70 1005.00 1003.98 1003.16 1003.04 1002.97 1003.30 1005.77 1008.95 1009.39 1009.10 1009.15 1009.45 1009.32 1009.29 1009.67 1009.91 1010.41 1011.24 1011.97 1012.64 1013.23 1013.40 1013.63 1014.45 1014.92 1015.78 1016.24 1016.60 1016.87 1016.92 1016.96 1017.30 1017.38 1017.63 1017.80 1017.89 1018.01 1018.18 1018.40 1018.01 1018.23 1018.23 1018.02 1018.11 1018.07 1018.08
1005.91 1005.39 1004.97 1004.15 1003.72 1003.54 1003.42 1003.35 1003.64 1004.48 1006.34 1007.59 1007.30 1007.16 1008.39 1009.21 1009.54 1009.59 1009.90 1010.10 1010.35 1011.17 1011.95 1012.64 1012.98 1013.27 1014.03 1014.83 1015.38 1015.71 1016.39 1016.68 1016.98 1016.90 1017.03 1017.32 1017.59 1017.77 1017.99 1018.32 1018.21 1018.24 1018.10 1018.35 1018.29 1018.24 1018.23 1018.20 1018.20
1005.45 1005.00 1004.47 1003.72 1003.75 1003.87 1003.42 1003.66 1003.93 1005.24 1006.10 1007.12 1007.36 1007.75 1008.32 1009.13 1009.46 1009.46 1009.65 1009.86 1010.37 1011.08 1011.67 1012.33 1012.91 1013.41 1014.07 1014.71 1015.24 1015.43 1015.94 1016.30 1016.51 1016.96 1017.18 1017.49 1017.78 1017.91 1017.83 1017.82 1017.96 1018.09 1018.09 1018.18 1018.35 1018.27 1018.60 1018.54 1018.56
1004.96 1004.90 1004.70 1004.14 1004.06 1003.88 1004.08 1004.04 1004.16 1004.90 1005.99 1006.69 1007.46 1009.89 1012.03 1011.43 1011.00 1009.72 1009.91 1009.85 1010.15 1011.04 1011.81 1012.32 1013.13 1013.79 1014.15 1015.02 1014.97 1015.59 1015.90 1016.47 1016.86 1017.08 1017.24 1017.53 1017.79 1017.88 1017.99 1018.04 1017.97 1018.17 1018.13 1018.30 1018.20 1018.43 1018.61 1018.85 1018.82
1004.93 1005.29 1004.91 1004.56 1004.08 1004.05 1003.93 1004.54 1004.53 1004.55 1005.94 1007.08 1008.59 1010.17 1011.58 1013.48 1013.38 1012.88 1010.45 1010.20 1010.16 1011.15 1011.84 1012.69 1013.32 1014.08 1014.71 1015.11 1015.21 1015.61 1016.01 1016.67 1017.18 1017.44 1017.50 1017.82 1017.93 1018.01 1018.16 1018.25 1018.35 1018.43 1018.12 1018.18 1018.23 1018.29 1018.52 1019.10 1018.94
1005.55 1005.50 1005.50 1004.60 1004.19 1004.22 1004.39 1005.14 1005.30 1004.86 1005.90 1007.50 1008.80 1009.82 1011.59 1011.74 1013.02 1012.29 1010.32 1010.14 1010.16 1011.10 1011.96 1012.73 1013.45 1014.31 1015.02 1015.33 1015.42 1015.96 1016.58 1017.03 1017.38 1017.63 1017.91 1017.94 1018.07 1018.14 1018.29 1018.55 1018.70 1018.58 1018.59 1018.58 1018.47 1018.68 1019.03 1019.26 1019.29
1006.02 1005.69 1005.48 1004.83 1004.04 1004.64 1005.06 1006.28 1006.04 1005.37 1005.97 1007.72 1008.01 1008.88 1011.12 1010.53 1011.67 1012.30 1010.28 1009.98 1010.39 1011.06 1011.85 1012.69 1013.36 1014.17 1014.93 1015.68 1016.20 1016.67 1017.02 1017.40 1017.79 1018.06 1018.29 1018.24 1018.30 1018.29 1018.52 1018.67 1018.64 1018.67 1018.82 1018.79 1018.74 1018.94 1019.08 1019.34 1019.67
1005.64 1005.03 1004.52 1004.67 1004.62 1005.26 1006.82 1007.68 1007.69 1008.97 1008.27 1009.84 1010.44 1009.77 1008.95 1009.86 1011.30 1011.44 1009.53 1009.83 1010.49 1011.02 1011.78 1012.57 1013.37 1014.24 1015.15 1015.89 1016.56 1017.10 1017.53 1017.74 1017.99 1018.25 1018.39 1018.41 1018.55 1018.49 1018.63 1018.60 1018.65 1018.78 1019.08 1018.92 1018.75 1019.05 1019.28 1019.50 1019.69
1004.56 1004.24 1004.48 1004.47 1004.54 1005.72 1007.68 1010.27 1010.84 1009.58 1009.01 1009.45 1009.71 1010.02 1009.80 1008.52 1008.49 1010.00 1009.63 1010.08 1010.78 1011.45 1011.99 1012.77 1013.85 1014.70 1015.20 1016.14 1017.18 1017.74 1018.14 1018.26 1018.55 1018.64 1018.94 1018.96 1018.83 1018.67 1018.88 1019.03 1019.05 1019.09 1019.33 1019.22 1018.98 1019.17 1019.58 1019.78 1019.67
1004.16 1003.86 1004.28 1004.32 1004.62 1006.05 1008.24 1010.04 1009.98 1011.46 1010.90 1010.42 1010.70 1010.35 1010.44 1009.55 1009.00 1008.95 1009.64 1009.94 1010.41 1011.55 1012.61 1013.84 1014.36 1015.01 1015.20 1015.87 1016.93 1017.65 1018.13 1018.36 1018.63 1018.57 1018.90 1019.18 1019.14 1018.89 1019.11 1019.55 1019.36 1019.25 1019.49 1019.35 1019.21 1019.38 1019.98 1020.05 1019.83
1004.07 1004.11 1004.35 1004.60 1005.14 1006.28 1008.71 1011.47 1012.56 1012.08 1011.37 1010.04 1010.94 1010.58 1011.27 1010.79 1010.39 1010.44 1010.68 1010.65 1011.10 1011.67 1013.08 1013.87 1014.72 1014.56 1015.56 1015.99 1016.90 1017.70 1018.30 1018.71 1018.84 1018.92 1019.20 1019.43 1019.30 1019.08 1019.37 1019.94 1019.91 1019.50 1019.60 1019.53 1019.48 1019.57 1020.00 1020.41 1020.07
1004.27 1004.00 1004.31 1004.98 1005.94 1007.26 1008.19 1012.42 1013.30 1013.08 1012.10 1011.31 1011.39 1011.85 1011.92 1011.30 1011.70 1011.59 1011.67 1011.80 1011.92 1012.95 1013.40 1014.69 1015.02 1015.25 1015.69 1016.06 1016.79 1017.51 1018.06 1018.58 1018.76 1018.75 1019.02 1019.37 1019.32 1019.30 1019.55 1019.82 1019.77 1019.72 1019.54 1019.68 1019.56 1019.60 1019.90 1020.18 1020.64
1004.39 1004.35 1005.04 1005.58 1006.60 1007.61 1008.40 1011.33 1012.97 1013.46 1012.74 1012.38 1011.87 1012.08 1012.36 1011.76 1012.30 1012.44 1012.39 1012.60 1012.96 1013.34 1013.86 1014.44 1014.73 1015.24 1015.58 1016.02 1016.24 1017.01 1017.50 1017.77 1018.16 1018.71 1018.98 1019.27 1019.35 1019.42 1019.38 1019.63 1019.43 1019.47 1019.42 1019.63 1019.51 1019.68 1020.02 1020.18 1020.46
1003.98 1004.69 1005.60 1006.22 1007.39 1008.98 1009.03 1010.72 1012.79 1012.69 1011.65 1011.78 1011.87 1011.81 1011.56 1011.89 1012.57 1012.87 1012.66 1012.81 1013.21 1013.55 1013.94 1014.40 1014.78 1014.99 1015.22 1015.63 1016.09 1016.61 1017.18 1017.80 1018.22 1018.69 1018.95 1019.24 1019.43 1019.50 1019.54 1019.54 1019.60 1019.45 1019.51 1019.71 1019.65 1019.79 1019.97 1020.13 1020.30
1004.40 1005.47 1006.80 1007.87 1008.98 1009.67 1008.44 1009.67 1010.48 1010.26 1010.12 1010.12 1010.49 1011.03 1011.33 1011.61 1012.55 1012.77 1012.86 1012.92 1013.20 1013.54 1013.83 1014.22 1014.62 1015.00 1015.26 1015.60 1015.97 1016.31 1016.50 1017.22 1017.66 1018.07 1018.40 1018.90 1019.17 1019.22 1019.08 1019.16 1019.35 1019.30 1019.46 1019.51 1019.54 1019.82 1020.05 1020.25 1020.45
1005.00 1005.86 1007.12 1008.49 1009.66 1009.39 1008.74 1009.89 1009.26 1008.98 1009.33 1009.79 1009.63 1009.95 1010.49 1011.17 1011.62 1012.04 1012.29 1012.61 1013.16 1013.52 1013.76 1014.05 1014.33 1014.57 1014.82 1015.14 1015.49 1015.79 1016.09 1016.65 1017.14 1017.50 1017.86 1018.11 1018.43 1018.51 1018.45 1018.55 1018.67 1018.92 1019.14 1019.23 1019.43 1019.72 1019.95 1020.12 1020.28
1005.31 1006.36 1006.78 1008.12 1008.60 1009.19 1009.84 1009.39 1008.83 1008.53 1008.70 1008.83 1009.03 1009.29 1009.86 1010.39 1010.70 1011.10 1011.35 1011.81 1012.43 1012.91 1013.13 1013.36 1013.75 1014.08 1014.47 1014.67 1015.05 1015.50 1015.84 1016.17 1016.55 1016.93 1017.25 1017.44 1017.61 1017.74 1017.81 1018.08 1018.44 1018.68 1018.98 1019.28 1019.45 1019.80 1020.07 1020.02 1020.17
1005.38 1006.19 1007.21 1008.80 1010.12 1010.61 1010.29 1009.61 1008.91 1008.63 1008.35 1008.07 1008.27 1008.77 1009.20 1009.62 1010.12 1010.38 1010.67 1011.17 1011.44 1011.72 1012.18 1012.64 1013.03 1013.46 1013.82 1014.17 1014.58 1014.94 1015.22 1015.60 1016.06 1016.45 1016.88 1016.97 1017.00 1017.18 1017.46 1017.87 1018.20 1018.39 1018.66 1018.87 1019.42 1019.69 1019.68 1020.00 1019.98
1005.70 1006.46 1007.72 1009.02 1010.04 1010.74 1010.42 1009.08 1007.56 1007.59 1007.28 1007.11 1007.41 1007.93 1008.31 1008.96 1009.46 1009.75 1010.05 1010.36 1010.53 1010.51 1011.42 1012.09 1012.71 1013.11 1013.43 1013.80 1014.14 1014.50 1014.88 1015.31 1015.69 1016.10 1016.46 1016.75 1016.86 1016.95 1017.20 1017.52 1017.82 1018.10 1018.39 1018.75 1019.11 1019.37 1019.71 1019.66 1019.92
1005.73 1006.65 1007.98 1009.90 1010.92 1011.01 1010.67 1009.22 1007.52 1007.05 1006.64 1006.38 1006.63 1007.13 1007.86 1008.42 1008.99 1009.24 1009.51 1009.86 1010.30 1010.72 1011.06 1011.94 1012.40 1012.55 1013.03 1013.44 1013.88 1014.28 1014.64 1015.03 1015.55 1015.94 1016.23 1016.51 1016.75 1016.87 1017.01 1017.19 1017.49 1017.82 1018.08 1018.38 1018.63 1019.08 1019.16 1019.63 1019.74
Thickness
5822 5821 5816 5806 5766 5756 5746 5775 5788 5815 5812 5829 5828 5817 5801 5802 5794 5759 5800 5797 5791 5783 5775 5773 5771 5769 5766 5763 5763 5762 5760 5757 5755 5752 5752 5750 5749 5749 5748 5746 5746 5745 5744 5743 5740 5741 5741 5741 5742
5826 5824 5812 5795 5762 5737 5761 5790 5802 5819 5826 5831 5817 5810 5798 5781 5807 5791 5789 5792 5790 5784 5776 5774 5769 5765 5763 5760 5759 5758 5757 5753 5750 5749 5747 5746 5745 5745 5744 5743 5742 5740 5740 5740 5738 5738 5739 5739 5740
5828 5826 5795 5779 5766 5756 5771 5814 5817 5830 5834 5819 5805 5813 5801 5786 5800 5800 5794 5789 5783 5777 5772 5769 5765 5763 5760 5757 5755 5755 5753 5750 5746 5745 5744 5743 5742 5742 5739 5738 5739 5737 5736 5735 5734 5737 5737 5738 5739
5821 5815 5807 5776 5763 5796 5807 5827 5832 5824 5807 5789 5764 5776 5795 5810 5802 5805 5798 5791 5783 5773 5769 5767 5761 5759 5757 5754 5754 5752 5748 5746 5743 5743 5741 5740 5739 5737 5735 5733 5733 5733 5731 5731 5732 5734 5734 5736 5736
5820 5805 5778 5775 5786 5818 5835 5846 5830 5806 5773 5775 5732 5766 5777 5802 5808 5801 5794 5789 5783 5776 5768 5763 5761 5759 5756 5754 5752 5748 5746 5744 5742 5741 5739 5738 5735 5733 5733 5731 5731 5729 5728 5728 5729 5731 5731 5733 5732
5794 5801 5763 5758 5793 5842 5841 5830 5821 5810 5780 5772 5763 5773 5777 5803 5800 5793 5798 5789 5783 5776 5769 5765 5758 5756 5755 5753 5749 5746 5744 5741 5741 5739 5737 5736 5732 5730 5729 5727 5726 5726 5725 5725 5726 5728 5729 5728 5729
5790 5779 5771 5780 5797 5818 5838 5844 5813 5811 5797 5781 5782 5760 5774 5787 5806 5802 5794 5790 5784 5776 5770 5764 5758 5755 5753 5750 5746 5744 5742 5741 5739 5738 5736 5732 5729 5727 5725 5723 5721 5722 5721 5721 5722 5724 5726 5727 5726
5808 5794 5781 5795 5796 5817 5848 5848 5830 5810 5786 5786 5783 5765 5765 5788 5806 5798 5793 5788 5778 5774 5770 5764 5759 5753 5750 5748 5747 5744 5742 5740 5739 5737 5734 5731 5726 5724 5723 5720 5718 5717 5716 5716 5715 5717 5721 5724 5724
5827 5774 5763 5787 5810 5826 5846 5833 5841 5819 5771 5774 5766 5759 5762 5798 5806 5795 5781 5783 5782 5770 5768 5766 5759 5756 5752 5751 5748 5745 5742 5741 5741 5738 5735 5731 5727 5722 5721 5718 5716 5714 5712 5712 5711 5712 5715 5718 5720
5800 5770 5778 5805 5829 5820 5831 5836 5836 5804 5766 5764 5782 5787 5771 5794 5798 5787 5780 5774 5777 5774 5767 5768 5765 5760 5756 5755 5750 5745 5742 5740 5738 5736 5733 5729 5728 5724 5720 5715 5712 5710 5709 5708 5709 5710 5711 5712 5713
5803 5777 5805 5813 5828 5838 5831 5830 5845 5810 5769 5775 5781 5790 5789 5796 5794 5788 5787 5782 5777 5780 5776 5772 5772 5764 5760 5755 5747 5742 5739 5735 5733 5731 5729 5726 5722 5720 5715 5712 5709 5705 5707 5705 5704 5708 5707 5708 5707
5798 5813 5816 5826 5832 5829 5825 5833 5826 5828 5807 5800 5806 5815 5803 5794 5788 5788 5784 5784 5781 5778 5774 5773 5774 5771 5762 5754 5748 5745 5738 5735 5733 5732 5728 5724 5719 5716 5713 5710 5708 5706 5706 5703 5701 5702 5703 5704 5703
5804 5815 5821 5835 5828 5827 5831 5819 5821 5811 5809 5807 5808 5806 5796 5790 5788 5794 5792 5788 5783 5775 5773 5769 5768 5766 5758 5754 5749 5746 5741 5738 5733 5727 5723 5719 5714 5710 5708 5707 5705 5704 5703 5702 5700 5699 5697 5698 5698
5818 5817 5813 5826 5823 5827 5813 5816 5822 5822 5814 5808 5805 5779 5750 5737 5764 5789 5790 5788 5786 5779 5772 5769 5762 5760 5755 5750 5749 5743 5739 5733 5728 5723 5719 5716 5710 5706 5701 5700 5701 5698 5698 5697 5698 5696 5695 5692 5692
5819 5799 5805 5812 5819 5816 5824 5802 5805 5831 5816 5801 5788 5774 5753 5754 5755 5750 5789 5788 5785 5780 5774 5767 5761 5754 5749 5746 5745 5740 5735 5728 5722 5718 5714 5709 5704 5699 5696 5693 5692 5692 5693 5692 5694 5693 5692 5687 5687
5796 5798 5771 5799 5816 5818 5812 5769 5806 5830 5821 5802 5792 5780 5763 5758 5753 5759 5789 5791 5789 5780 5773 5769 5764 5753 5745 5743 5742 5736 5729 5723 5717 5713 5708 5704 5698 5693 5690 5685 5682 5683 5683 5685 5686 5687 5684 5682 5681
5781 5756 5768 5789 5821 5812 5803 5777 5806 5828 5822 5793 5800 5799 5763 5772 5761 5759 5787 5792 5787 5782 5773 5767 5763 5752 5745 5738 5734 5729 5723 5718 5713 5708 5703 5699 5694 5688 5683 5676 5674 5675 5677 5678 5679 5679 5678 5675 5673
5763 5770 5784 5781 5806 5803 5777 5769 5791 5779 5788 5773 5769 5783 5789 5770 5762 5766 5792 5789 5782 5779 5773 5765 5761 5751 5741 5736 5728 5722 5717 5711 5705 5702 5699 5695 5690 5684 5678 5672 5668 5669 5670 5672 5675 5672 5672 5668 5668
5801 5800 5790 5798 5815 5793 5773 5747 5749 5778 5784 5782 5778 5772 5777 5791 5794 5777 5786 5784 5777 5773 5767 5760 5751 5745 5738 5729 5718 5712 5707 5703 5697 5695 5691 5688 5685 5680 5675 5666 5662 5662 5662 5665 5668 5668 5664 5661 5662
5800 5799 5792 5802 5812 5797 5770 5758 5769 5762 5770 5775 5771 5774 5767 5781 5789 5790 5783 5782 5779 5768 5759 5749 5744 5737 5737 5730 5719 5710 5705 5701 5696 5694 5690 5684 5680 5678 5672 5663 5657 5656 5660 5661 5661 5661 5654 5654 5655
5793 5792 5787 5786 5799 5798 5769 5740 5734 5755 5768 5780 5763 5775 5766 5770 5772 5772 5769 5771 5770 5763 5750 5742 5733 5739 5731 5727 5716 5708 5701 5695 5692 5689 5685 5679 5677 5675 5669 5661 5655 5659 5657 5654 5654 5655 5652 5647 5650
5769 5801 5800 5792 5777 5742 5776 5698 5719 5734 5751 5760 5761 5753 5750 5762 5757 5762 5761 5757 5757 5747 5748 5731 5729 5730 5728 5722 5714 5707 5700 5692 5689 5688 5685 5678 5675 5671 5666 5661 5658 5656 5655 5653 5655 5655 5652 5649 5642
5781 5801 5790 5790 5770 5767 5767 5722 5719 5728 5737 5742 5752 5750 5747 5754 5750 5750 5753 5753 5750 5747 5740 5735 5734 5728 5725 5720 5717 5708 5703 5698 5692 5686 5682 5676 5672 5668 5665 5661 5659 5656 5655 5652 5653 5650 5646 5642 5638
5808 5795 5782 5782 5761 5722 5751 5738 5707 5717 5741 5745 5750 5754 5756 5751 5745 5745 5753 5752 5747 5746 5741 5736 5732 5728 5725 5721 5716 5708 5702 5694 5689 5683 5679 5674 5669 5665 5662 5659 5655 5655 5652 5650 5649 5645 5643 5639 5634
5793 5769 5719 5715 5715 5707 5756 5746 5723 5750 5756 5759 5753 5754 5755 5752 5743 5745 5747 5747 5745 5742 5740 5737 5732 5727 5724 5719 5713 5709 5706 5697 5691 5686 5681 5674 5669 5665 5664 5660 5656 5654 5649 5646 5645 5641 5636 5631 5625
5774 5765 5722 5706 5708 5723 5754 5719 5735 5762 5763 5761 5764 5764 5763 5754 5754 5751 5750 5748 5743 5740 5738 5736 5732 5728 5725 5721 5716 5713 5708 5701 5694 5688 5682 5677 5672 5668 5664 5660 5657 5652 5647 5644 5640 5636 5630 5625 5620
5767 5739 5772 5743 5752 5728 5731 5742 5758 5767 5761 5764 5759 5761 5760 5762 5761 5758 5758 5753 5747 5742 5739 5736 5733 5730 5725 5721 5716 5711 5707 5702 5696 5690 5685 5680 5676 5671 5665 5660 5654 5648 5642 5637 5633 5629 5623 5620 5615
5776 5780 5733 5724 5702 5699 5716 5727 5728 5736 5747 5755 5757 5755 5757 5759 5761 5761 5758 5756 5755 5753 5749 5743 5738 5731 5726 5721 5716 5710 5706 5702 5695 5690 5683 5679 5676 5672 5665 5657 5651 5645 5640 5634 5628 5623 5621 5615 5611
5757 5746 5746 5736 5729 5703 5693 5719 5755 5747 5758 5759 5762 5758 5757 5752 5754 5755 5756 5755 5754 5754 5750 5742 5736 5729 5725 5720 5716 5709 5703 5698 5693 5686 5680 5674 5670 5666 5661 5654 5648 5642 5636 5630 5623 5618 5613 5610 5604
5776 5760 5741 5701 5707 5714 5706 5710 5775 5774 5779 5785 5779 5769 5761 5758 5751 5752 5752 5750 5750 5748 5744 5732 5728 5727 5721 5715 5709 5705 5700 5694 5687 5680 5675 5669 5663 5659 5655 5650 5643 5637 5631 5625 5620 5612 5610 5601 5596